Location: Unspecified
(43.4354°N, 0.0000°E)
Time: 01:02:45
(UTC+00:00)

SR - Pass Details

Date: 24 June 2019
Orbit: 580 x 876 km, 66.7° (Epoch: 20 July)

Event Time Altitude Azimuth Distance (km) Brightness Sun altitude
Exits shadow 03:12:10 13° 209° (SSW) 1,686 ? -10.2°
Maximum altitude 03:15:52 88° 118° (ESE) 589 ? -9.7°
Drops below altitude 10° 03:20:11 10° 32° (NNE) 1,940 ? -9.2°
Sets 03:22:29 0° 32° (NNE) 2,874 ? -8.9°
